Regional Weather Roundup
Issued by NWS

Home | Current Version | Previous Version | Text Only | Print | Product List | Glossary Off
Versions: 1 2 3 4 5 6 7 8 9 10 11 12 13 14 15 16 17 18 19 20 21 22 23 24 25 26 27

000
ASUS45 KBOU 101310
RWRCO

WEATHER ROUNDUP FOR COLORADO
NATIONAL WEATHER SERVICE DENVER/BOULDER CO
600 AM MST SUN DEC 10 2017

NOTE: "FAIR" INDICATES FEW OR NO CLOUDS BELOW 12000 FEET WITH NO
SIGNIFICANT WEATHER AND/OR OBSTRUCTIONS TO VISIBILITY.

COZ001>005-013-030-031-101400-
...NORTHWEST COLORADO...

CITY           SKY/WX    TMP DP  RH WIND       PRES   REMARKS
CRAIG          FAIR       2  -3  80 W3        30.58S
HAYDEN         FAIR      15   7  70 E14       30.59R WCI   0
MEEKER         FAIR      12   3  67 E7        30.57R WCI   1
RABBIT EARS PA FAIR      19   7  58 W5        30.55S WCI  13
STEAMBOAT SPGS FAIR       9   7  92 CALM      30.59S
WALDEN         FAIR       1  -6  71 SE7       30.57R WCI -11
$$

COZ006>008-011-101400-
...WEST CENTRAL VALLEYS...

CITY           SKY/WX    TMP DP  RH WIND       PRES   REMARKS
GRAND JUNCTION FAIR      19   5  54 E6        30.58S WCI  11
MONTROSE       FAIR      12   0  58 SE6       30.62R WCI   3
EAGLE          FAIR       4   0  83 CALM      30.70R
RIFLE          FAIR      12   4  70 SE3       30.61S
DELTA          FAIR      14   1  57 CALM      30.61S
NUCLA          FAIR      18  -8  32 E8        30.60S WCI   7
$$

COZ017>023-064>068-101400-
...SOUTHWEST COLORADO...

CITY           SKY/WX    TMP DP  RH WIND       PRES   REMARKS
DURANGO        FAIR       7  -3  64 E5        30.52S WCI  -2
CORTEZ         FAIR       8  -6  52 NE8       30.54S WCI  -4
PAGOSA SPRINGS FAIR      12  -2  53 CALM      30.53R
TELLURIDE      FAIR      25 -15  17 SE5       30.58S WCI  19
WOLF CREEK PAS FAIR      28 -26   8 NW7       30.65R WCI  21
$$

COZ009-010-012-014-032>034-037-058>063-101400-
...CENTRAL COLORADO...

CITY           SKY/WX    TMP DP  RH WIND       PRES   REMARKS
ASPEN          FAIR      11   0  61 S5        30.58S WCI   3
BUENA VISTA    FAIR      11  -2  55 W8        30.53S WCI   0
COPPER MTN     NOT AVBL
BERTHOUD PASS  FAIR      16   5  62 NW25G32   30.55S WCI  -3
COTTONWOOD PAS FAIR      36 -31   5 NW3       30.53S
GUNNISON       FAIR       0  -5  79 CALM      30.66R
KREMMLING      HAZE       7   1  78 CALM      30.69R VSB 3/4
LEADVILLE      FAIR      13 -10  35 NE9       30.54S WCI   1
MONARCH PASS   FAIR      23 -15  18 W10       30.69R WCI  12
SALIDA         FAIR      25  -2  31 NW10      30.61S WCI  14
SUNLIGHT       FAIR      23 -13  20 N5        30.62S WCI  17
WILKERSON PASS FAIR      30 -29   6 NW10G17   30.56S WCI  21
$$

COZ069>075-101400-
...SAN LUIS VALLEY/SANGRE DE CRISTO MOUNTAINS...

CITY           SKY/WX    TMP DP  RH WIND       PRES   REMARKS
ALAMOSA        FAIR       1  -7  68 CALM      30.55R
DEL NORTE      FAIR      22 -11  23 W16       30.54S WCI   8
LA VETA PASS   FAIR      27  -6  24 SW18        N/A  WCI  13
SAGUACHE       FAIR      19  -6  32 N9        30.55R WCI   9
$$

COZ035-036-038>040-101400-
...NORTHERN COLORADO FRONT RANGE...

CITY           SKY/WX    TMP DP  RH WIND       PRES   REMARKS
DENVER INTL AP FAIR      34  -4  19 SW13      30.39R WCI  25
DMNS CITY PARK NOT AVBL
AURORA         CLEAR     31  -3  22 S10       30.40R WCI  22
FRONT RANGE AP FAIR      31  -1  25 S8        30.40R WCI  24
ERIE MUNI ARPT FAIR      20   8  61 CALM      30.43S
BOULDER MUN AP FAIR      46  -4  12 SW7       30.37S
CENTENNIAL     FAIR      23   1  38 SE5       30.41R WCI  17
BROOMFIELD     PTCLDY    37  -4  17 S6        30.39S
FORT COLLINS   FAIR      27   9  46 CALM      30.39R
LONGMONT       FAIR      20   8  58 CALM      30.40R
$$

COZ041-046-047-076>085-087-088-101400-
...PIKES PEAK/PALMER DIVIDE AND SOUTHERN FOOTHILLS...

CITY           SKY/WX    TMP DP  RH WIND       PRES   REMARKS
COLO. SPRINGS  FAIR      27  -3  27 N8        30.43S WCI  19
A. F. ACADEMY  FAIR      21  -4  32 N12       30.43S WCI   9
SCHRIEVER AFB  FAIR      34  -9  15 NW3       30.43S
CHEYENNE MTN   FAIR      44 -10  10 S6        30.38S
ELLICOTT         N/A    N/A N/A N/A N3        30.42R
FALCON         FAIR      24  -6  26 NW8       30.45R WCI  15
FORT CARSON    FAIR      30  -4  23 NW13      30.41R WCI  20
LIMON          FAIR      20  -2  38 NW6       30.41R WCI  12
MONUMENT HILL  FAIR      27  -2  28 SW7       30.45S WCI  19
CANON CITY     FAIR      37  -2  18 W18       30.42S
WALSENBURG     FAIR      34  -2  21 SW13      30.43S WCI  25
TRINIDAD       FAIR      30   3  31 SW16      30.44R WCI  19
$$

COZ042>045-048>051-090-091-101400-
...NORTHEAST COLORADO...

CITY           SKY/WX    TMP DP  RH WIND       PRES   REMARKS
GREELEY ARPT   FAIR      12   3  67 NE3       30.41R
AKRON          FAIR      31  -1  25 W14       30.37R WCI  21
BURLINGTON     FAIR      26   5  40 W12       30.36R WCI  16
WRAY           FAIR      34   5  29 W10       30.33S WCI  26
YUMA           FAIR      32   3  29 W14       30.35R WCI  22
STERLING       FAIR      21   9  58 S9        30.36S WCI  11
HOLYOKE        FAIR      34   9  35 W13       30.32R WCI  25
FORT MORGAN    FAIR      21   1  41 W9        30.39S WCI  11
$$

COZ086-089-092>099-101400-
...SOUTHEAST COLORADO...

CITY           SKY/WX    TMP DP  RH WIND       PRES   REMARKS
PUEBLO         FAIR      18   2  49 W8        30.42S WCI   8
LA JUNTA       FAIR      26   3  37 SW8       30.42R WCI  18
LAMAR          FAIR      26   9  48 W8        30.39R WCI  18
SPRINGFIELD      N/A     31   4  31 W16       30.39R WCI  20
$$




USA.gov is the U.S. government's official web portal to all federal, state and local government web resources and services.